We konden geen weer-waarchuwingen ophalen. Ga rechtstreeks naar de Meteoalarm site : www.meteoalarm.eu en controleer daar .



Onweer radar Meer informatie blitzortung!


Regen radar Meer informatie rain snow radar


Bezoek onze andere website:

Template documentation
and downloads

And another site



15 daagse weersverwachting Ballina (IE)

  • Overzicht
  • Per uur
  • 15 dagen
  • Extra
  • Vergelijk
  • Kaarten
  • Dagkaart
  • Meer »
  • Info
  • Statistieken
  • Directe link
    Temp 6h Neerslag Wind  
 06:20     21:02    Daglengte: 14:42 Vandaag
13:00
16°
 
3
19:00
15°
 
5
 06:22     21:00    Daglengte: 14:38 Morgen
01:00
14°
 
7
07:00
15°
 
4
13:00
19°
 
7
19:00
16°
 
8
 06:24     20:57    Daglengte: 14:33 Vrijdag 19 Aug
01:00
14°
 
6
07:00
14°
 
5
13:00
17°
1.8 mm
7
19:00
16°
1.1 mm
7
 06:26     20:55    Daglengte: 14:29 Zaterdag 20 Aug
01:00
14°
17.6 mm
6
07:00
13°
44.7 mm
6
Locatie info
Region: Connaught
Latitude: 54.1167°N
Longitude: -9.1667°E
32 masl
Temp/Neerslag /Baro Onweer/Dauwpunt
    Temp Baro 1h Neerslag Dauwpunt Wind UV Bewolking  
 06:20     21:02    Daglengte: 14:42 Vandaag
13:00
16°
1017.7 hPa   6.4°
3
Windvlaag: 5 m/s
56%
14:00
17°
1017.4 hPa   6.7°
3
Windvlaag: 5.7 m/s
48%
15:00
17°
1017.0 hPa   7.0°
4
Windvlaag: 5.4 m/s
82%
16:00
16°
1016.6 hPa   8.6°
4
Windvlaag: 3.6 m/s
86%
17:00
15°
1016.4 hPa
20%
9.7°
4
Windvlaag: 3.7 m/s
86%
18:00
15°
1015.8 hPa
20%
10.1°
4
Windvlaag: 4.7 m/s
85%
19:00
15°
1015.1 hPa
11%
10.9°
5
Windvlaag: 7.3 m/s
84%
20:00
14°
1014.9 hPa
15%
11.2°
5
Windvlaag: 8.7 m/s
86%
21:00
14°
1014.5 hPa
77%
11.5°
6
Windvlaag: 10 m/s
86%
22:00
13°
1014.1 hPa
77%
11.4°
6
Windvlaag: 10.7 m/s
86%
23:00
13°
1013.2 hPa
56%
11.8°
7
Windvlaag: 11.3 m/s
83%
 06:22     21:00    Daglengte: 14:38 Morgen
00:00
14°
1012.6 hPa
18%
12.2°
7
Windvlaag: 11.5 m/s
86%
01:00
14°
1011.9 hPa
26%
12.5°
7
Windvlaag: 12 m/s
85%
02:00
14°
1011.2 hPa
23%
13.0°
7
Windvlaag: 11.7 m/s
67%
03:00
14°
1010.6 hPa
27%
13.8°
6
Windvlaag: 11 m/s
86%
04:00
15°
1010.1 hPa
29%
13.7°
4
Windvlaag: 9.8 m/s
66%
05:00
15°
1009.6 hPa
26%
13.2°
4
Windvlaag: 7 m/s
84%
06:00
15°
1009.4 hPa
62%
13.3°
4
Windvlaag: 5.5 m/s
86%
07:00
15°
1009.1 hPa
16%
13.2°
4
Windvlaag: 5.7 m/s
59%
08:00
15°
1008.7 hPa
29%
13.4°
4
Windvlaag: 6.3 m/s
86%
09:00
16°
1008.3 hPa
74%
14.0°
4
Windvlaag: 6.6 m/s
76%
10:00
16°
1008.0 hPa
33%
14.8°
4
Windvlaag: 4.6 m/s
60%
11:00
17°
1007.7 hPa
29%
15.9°
5
Windvlaag: 4.8 m/s
14%
12:00
18°
1007.8 hPa
62%
14.8°
7
Windvlaag: 5.2 m/s
26%
13:00
19°
1007.6 hPa
27%
12.6°
7
Windvlaag: 4.7 m/s
29%
14:00
18°
1007.8 hPa
70%
11.9°
7
Windvlaag: 4.7 m/s
18%
15:00
18°
1007.9 hPa
24%
11.4°
8
Windvlaag: 4.9 m/s
8%
16:00
18°
1007.9 hPa
17%
10.5°
8
Windvlaag: 6.5 m/s
10%
17:00
17°
1008.2 hPa
20%
10.2°
8
Windvlaag: 7.6 m/s
13%
18:00
17°
1008.4 hPa
14%
10.2°
8
Windvlaag: 7.7 m/s
12%
19:00
16°
1008.5 hPa
20%
9.9°
8
Windvlaag: 7.4 m/s
13%
20:00
15°
1008.6 hPa
14%
9.5°
7
Windvlaag: 6.7 m/s
29%
21:00
15°
1008.9 hPa
14%
9.6°
6
Windvlaag: 7 m/s
12%
22:00
15°
1009.2 hPa
18%
9.7°
6
Windvlaag: 7.4 m/s
9%
23:00
14°
1009.2 hPa
29%
10.1°
6
Windvlaag: 7.2 m/s
9%
 06:24     20:57    Daglengte: 14:33 Vrijdag 19 Aug
00:00
14°
1009.3 hPa
19%
10.5°
6
Windvlaag: 7.2 m/s
6%
01:00
14°
1009.2 hPa
25%
10.6°
6
Windvlaag: 6.9 m/s
9%
02:00
14°
1009.3 hPa
24%
10.8°
5
Windvlaag: 6.4 m/s
10%
03:00
14°
1009.3 hPa
21%
10.4°
5
Windvlaag: 6.3 m/s
10%
04:00
14°
1009.4 hPa
14%
10.1°
5
Windvlaag: 6.3 m/s
9%
05:00
13°
1009.6 hPa
14%
9.0°
5
Windvlaag: 7.7 m/s
14%
06:00
13°
1009.9 hPa
14%
8.9°
5
Windvlaag: 7.2 m/s
17%
07:00
14°
1010.1 hPa
14%
8.6°
5
Windvlaag: 7.4 m/s
12%
08:00
14°
1010.4 hPa
14%
9.2°
5
Windvlaag: 6.2 m/s
14%
09:00
15°
1010.7 hPa
21%
9.4°
6
Windvlaag: 5 m/s
15%
10:00
15°
1010.7 hPa
43%
9.5°
7
Windvlaag: 4.9 m/s
54%
11:00
16°
1011.0 hPa
94%
8.7°
7
Windvlaag: 5.5 m/s
57%
12:00
17°
1011.2 hPa
97%
8.3°
8
Windvlaag: 5.6 m/s
78%
13:00
17°
1011.4 hPa 1.8 mm
100%
8.9°
7
Windvlaag: 5.6 m/s
34%
14:00
17°
1011.6 hPa 1.1 mm
100%
8.4°
8
Windvlaag: 7 m/s
41%
15:00
17°
1011.8 hPa
89%
8.2°
8
Windvlaag: 6.7 m/s
11%
16:00
17°
1011.8 hPa
87%
8.1°
8
Windvlaag: 8.1 m/s
19%
17:00
17°
1011.8 hPa
43%
9.6°
7
Windvlaag: 7.5 m/s
28%
18:00
17°
1011.9 hPa
80%
10.9°
7
Windvlaag: 8.6 m/s
50%
19:00
16°
1011.7 hPa
35%
11.8°
7
Windvlaag: 9.3 m/s
54%
20:00
16°
1011.2 hPa
28%
12.5°
7
Windvlaag: 9.9 m/s
53%
21:00
15°
1011.0 hPa
22%
12.0°
7
Windvlaag: 10.3 m/s
78%
22:00
14°
1010.5 hPa 1.8 mm
21%
11.8°
6
Windvlaag: 10.3 m/s
75%
23:00
14°
1010.2 hPa 2.6 mm
24%
12.5°
6
Windvlaag: 10.4 m/s
99%
 06:26     20:55    Daglengte: 14:29 Zaterdag 20 Aug
00:00
14°
1009.3 hPa 4.6 mm
35%
13.5°
6
Windvlaag: 8.5 m/s
100%
01:00
14°
1009.0 hPa 8.6 mm
99%
13.3°
6
Windvlaag: 8 m/s
97%
02:00
14°
1008.4 hPa 9.1 mm
100%
13.2°
7
Windvlaag: 7.7 m/s
82%
03:00
14°
1008.2 hPa 6.7 mm
100%
13.5°
7
Windvlaag: 8.2 m/s
84%
04:00
14°
1008.0 hPa 6.9 mm
100%
13.7°
7
Windvlaag: 7.1 m/s
83%
05:00
14°
1007.2 hPa 11.1 mm
100%
12.9°
6
Windvlaag: 9.8 m/s
94%
06:00
14°
1007.6 hPa 10.9 mm
100%
12.4°
6
Windvlaag: 8.7 m/s
19%
07:00
13°
1008.6 hPa
36%
11.2°
6
Windvlaag: 8.6 m/s
52%
08:00
13°
1009.5 hPa
35%
10.5°
6
Windvlaag: 7.5 m/s
18%
09:00
14°
1010.2 hPa
32%
9.6°
5
Windvlaag: 7.7 m/s
32%
10:00
14°
1010.7 hPa
75%
10.6°
7
Windvlaag: 6 m/s
20%
11:00
15°
1011.1 hPa
28%
11.4°
7
Windvlaag: 7 m/s
20%
12:00
15°
1011.5 hPa
29%
10.3°
8
Windvlaag: 7.6 m/s
18%
Temp/Neerslag /Baro Onweer/Dauwpunt
    Temp Baro Neerslag Dauwpunt Wind Bewolking  
 06:20     21:02    Daglengte: 14:42 Vandaag
13:00
16°
1017.7 hPa   6.4°
3
56%
16:00
16°
1016.6 hPa   8.6°
4
86%
19:00
15°
1015.1 hPa   10.9°
5
84%
22:00
13°
1014.1 hPa   11.4°
6
86%
 06:22     21:00    Daglengte: 14:38 Morgen
01:00
14°
1011.9 hPa   12.5°
7
85%
04:00
15°
1010.1 hPa   13.7°
4
66%
07:00
15°
1009.1 hPa   13.2°
4
59%
10:00
16°
1008.0 hPa   14.8°
4
60%
13:00
19°
1007.6 hPa   12.6°
7
29%
16:00
18°
1007.9 hPa   10.5°
8
10%
19:00
16°
1008.5 hPa   9.9°
8
13%
22:00
15°
1009.2 hPa   9.7°
6
9%
 06:24     20:57    Daglengte: 14:33 Vrijdag 19 Aug
01:00
14°
1009.2 hPa   10.6°
6
9%
04:00
14°
1009.4 hPa   10.1°
5
9%
07:00
14°
1010.1 hPa   8.6°
5
12%
10:00
15°
1010.7 hPa   9.5°
7
54%
13:00
17°
1011.4 hPa 1.8 mm 8.9°
7
34%
16:00
17°
1011.8 hPa 1.1 mm 8.1°
8
19%
19:00
16°
1011.7 hPa   11.8°
7
54%
22:00
14°
1010.5 hPa 1.8 mm 11.8°
6
75%
 06:26     20:55    Daglengte: 14:29 Zaterdag 20 Aug
01:00
14°
1009.0 hPa 15.7 mm 13.3°
6
97%
04:00
14°
1008.0 hPa 22.7 mm 13.7°
7
83%
07:00
13°
1008.6 hPa 22.0 mm 11.2°
6
52%
10:00
14°
1010.7 hPa   10.6°
7
20%
13:00
16°
1011.8 hPa   8.4°
9
73%
16:00
16°
1012.8 hPa 20.4 mm 7.5°
7
1%
19:00
15°
1013.2 hPa 20.4 mm 9.2°
6
0%
22:00
11°
1013.4 hPa 20.4 mm 9.3°
3
0%
 06:27     20:53    Daglengte: 14:26 Zondag 21 Aug
01:00
11°
1013.3 hPa 20.4 mm 9.8°
3
0%
04:00
10°
1012.8 hPa 20.4 mm 9.0°
3
0%
07:00
10°
1013.1 hPa 20.4 mm 9.1°
2
0%
10:00
15°
1013.5 hPa 20.4 mm 8.2°
3
0%
13:00
17°
1013.5 hPa 20.4 mm 6.5°
3
0%
16:00
18°
1012.5 hPa 20.4 mm 7.5°
2
1%
19:00
16°
1012.8 hPa 20.4 mm 9.5°
3
1%
22:00
12°
1012.5 hPa 20.4 mm 9.5°
2
1%
 06:29     20:51    Daglengte: 14:22 Maandag 22 Aug
01:00
12°
1011.5 hPa 20.4 mm 8.9°
1
1%
04:00
13°
1009.7 hPa 20.4 mm 10.7°
2
1%
07:00
13°
1008.4 hPa 20.4 mm 12.6°
3
1%
10:00
15°
1006.8 hPa 20.6 mm 13.5°
6
1%
13:00
16°
1005.4 hPa 22.2 mm 15.3°
7
1%
16:00
18°
1004.6 hPa 22.9 mm 16.7°
5
1%
19:00
18°
1004.3 hPa 24.1 mm 15.1°
4
1%
22:00
14°
1005.0 hPa 24.2 mm 13.1°
3
0%
 06:31     20:48    Daglengte: 14:17 Dinsdag 23 Aug
01:00
15°
1004.5 hPa 24.3 mm 13.9°
3
1%
04:00
15°
1003.8 hPa 24.5 mm 14.1°
3
1%
07:00
13°
1004.0 hPa 24.6 mm 13.0°
3
1%
10:00
17°
1004.2 hPa 24.6 mm 13.5°
4
1%
13:00
20°
1004.1 hPa 24.8 mm 11.2°
5
1%
16:00
20°
1003.9 hPa 25.1 mm 13.1°
5
1%
19:00
17°
1004.8 hPa 25.8 mm 12.7°
4
1%
22:00
13°
1005.9 hPa 25.8 mm 12.3°
2
0%
 06:33     20:46    Daglengte: 14:13 Woensdag 24 Aug
01:00
14°
1005.9 hPa 26.0 mm 12.4°
2
0%
04:00
14°
1005.9 hPa 26.5 mm 13.3°
2
1%
07:00
14°
1006.6 hPa 26.7 mm 12.6°
3
1%
10:00
16°
1007.9 hPa   12.7°
3
1%
13:00
18°
1008.5 hPa 54.5 mm 12.8°
5
1%
19:00
15°
1012.9 hPa 58.9 mm 13.0°
6
1%
 06:35     20:44    Daglengte: 14:09 Donderdag 25 Aug
01:00
13°
1016.9 hPa 60.1 mm 10.9°
5
1%
07:00
12°
1019.6 hPa 60.5 mm 10.5°
4
1%
13:00
17°
1022.2 hPa 60.5 mm 7.4°
4
0%
19:00
16°
1023.4 hPa 60.5 mm 11.3°
3
0%
 06:36     20:41    Daglengte: 14:05 Vrijdag 26 Aug
01:00
13°
1024.9 hPa 60.5 mm 12.0°
0
0%
07:00
14°
1024.5 hPa 60.6 mm 12.1°
0
1%
13:00
17°
1024.9 hPa 60.6 mm 13.1°
0
1%
19:00
17°
1025.0 hPa 61.7 mm 14.1°
3
1%
 06:38     20:39    Daglengte: 14:01 Zaterdag 27 Aug
01:00
13°
1026.0 hPa 62.2 mm 12.5°
2
0%
07:00
13°
1023.3 hPa 0.4 mm 11.7°
1
63%
13:00
18°
1023.3 hPa 0.2 mm 12.2°
1
68%
19:00
17°
1022.6 hPa 0.3 mm 12.9°
2
60%
 06:40     20:36    Daglengte: 13:56 Zondag 28 Aug
01:00
14°
1022.8 hPa 0.4 mm 12.2°
1
50%
07:00
13°
1021.8 hPa 0.6 mm 11.9°
1
51%
13:00
18°
1021.9 hPa 0.5 mm 12.8°
1
58%
19:00
17°
1021.3 hPa 0.5 mm 13.6°
2
67%
 06:42     20:34    Daglengte: 13:52 Maandag 29 Aug
01:00
14°
1021.8 hPa 0.2 mm 12.6°
1
56%
07:00
13°
1021.3 hPa 0.4 mm 12.0°
1
58%
13:00
18°
1021.6 hPa 0.3 mm 12.9°
1
70%
19:00
17°
1020.9 hPa 0.6 mm 13.6°
2
72%
 06:43     20:32    Daglengte: 13:49 Dinsdag 30 Aug
01:00
14°
1021.2 hPa 0.4 mm 12.1°
0
59%
07:00
13°
1020.4 hPa 0.4 mm 11.7°
0
64%
13:00
17°
1020.7 hPa 0.4 mm 12.3°
1
68%
19:00
17°
1020.3 hPa 0.4 mm 12.1°
2
63%
 06:45     20:29    Daglengte: 13:44 Woensdag 31 Aug
01:00
13°
1020.8 hPa 0.3 mm 11.3°
0
47%
07:00
12°
1019.9 hPa 0.3 mm 10.9°
1
49%
13:00
17°
1020.0 hPa 0.3 mm 11.7°
1
50%
19:00
16°
1018.8 hPa 0.7 mm 12.6°
1
57%
 06:47     20:27    Daglengte: 13:40 Donderdag 01 Sep
01:00
14°
1018.5 hPa 0.5 mm 12.2°
1
67%
07:00
13°
1017.4 hPa 0.6 mm 11.8°
1
72%
  CAPE Lifted Index Hail Supercell Tornado SRH 3km CL BTM PRES CL TOP PRES Swiss DWD icon SMHI TS
 06:20     21:02    Daglengte: 14:42 Vandaag
13:00 1 J/kg 14.4 K 0 % 0 % 0 % 0 m²/s² 0 0 21.45 3
14:00 0 J/kg 13.7 K 0 % 0 % 0 % 0 m²/s² 0 0 19.13 2
15:00 2 J/kg 12.9 K 0 % 0 % 0 % 0 m²/s² 0 0 15.36 3
16:00 0 J/kg 13.0 K 0 % 0 % 0 % 0 m²/s² 0 0 13.3 3
17:00 0 J/kg 13.5 K 0 % 0 % 0 % 0 m²/s² 0 0 13.8 61
18:00 0 J/kg 10.8 K 0 % 0 % 0 % 0 m²/s² 0 0 11.52 61
19:00 0 J/kg 6.2 K 0 % 0 % 0 % 0 m²/s² 0 0 6.29 3
20:00 0 J/kg 4.4 K 0 % 0 % 0 % 0 m²/s² 0 0 4.4 3
21:00 0 J/kg 4.0 K 0 % 0 % 0 % 0 m²/s² 0 0 4 3
22:00 0 J/kg 3.4 K 0 % 0 % 0 % 0 m²/s² 0 0 4.3 3
23:00 0 J/kg 2.9 K 0 % 0 % 0 % 0 m²/s² 0 0 6.35 3
 06:22     21:00    Daglengte: 14:38 Morgen
00:00 0 J/kg 2.7 K 0 % 0 % 0 % 0 m²/s² 0 0 7.41 3
01:00 0 J/kg 3.1 K 0 % 0 % 0 % 0 m²/s² 0 0 7.93 3
02:00 0 J/kg 4.3 K 0 % 0 % 0 % 0 m²/s² 0 0 9.01 3
03:00 17 J/kg 5.0 K 0 % 0 % 0 % 0 m²/s² 0 0 10.22 3
04:00 27 J/kg 4.5 K 0 % 0 % 0 % 0 m²/s² 0 0 8.04 3
05:00 19 J/kg 5.2 K 0 % 0 % 0 % 0 m²/s² 0 0 8.44 3
06:00 14 J/kg 5.5 K 0 % 0 % 0 % 0 m²/s² 0 0 7.87 3
07:00 9 J/kg 5.7 K 0 % 0 % 0 % 0 m²/s² 0 0 6.6 3
08:00 5 J/kg 3.1 K 0 % 0 % 0 % 0 m²/s² 0 0 3.37 3
09:00 25 J/kg 3.4 K 0 % 0 % 0 % 0 m²/s² 0 0 3.4 3
10:00 18 J/kg 3.2 K 0 % 0 % 0 % 0 m²/s² 0 0 3.2 2
11:00 10 J/kg 2.1 K 0 % 0 % 0 % 0 m²/s² 0 0 3.45 2
12:00 71 J/kg 1.1 K 0 % 0 % 0 % 0 m²/s² 0 0 5.15 3
13:00 9 J/kg 4.2 K 0 % 0 % 0 % 0 m²/s² 0 0 7.74 2
14:00 6 J/kg 5.9 K 0 % 0 % 0 % 0 m²/s² 0 0 11.69 2
15:00 13 J/kg 6.0 K 0 % 0 % 0 % 0 m²/s² 0 0 14.25 2
16:00 15 J/kg 6.7 K 0 % 0 % 0 % 0 m²/s² 0 0 13.39 2
17:00 23 J/kg 7.1 K 0 % 0 % 0 % 0 m²/s² 0 0 12.89 2
18:00 39 J/kg 7.6 K 0 % 0 % 0 % 0 m²/s² 0 0 13.39 2
19:00 44 J/kg 7.5 K 0 % 0 % 0 % 0 m²/s² 0 0 13.65 2
20:00 34 J/kg 7.9 K 0 % 0 % 0 % 0 m²/s² 0 0 15.28 2
21:00 31 J/kg 8.1 K 0 % 0 % 0 % 0 m²/s² 0 0 16.35 2
22:00 12 J/kg 8.6 K 0 % 0 % 0 % 0 m²/s² 0 0 16.52 1
23:00 24 J/kg 8.2 K 0 % 0 % 0 % 0 m²/s² 0 0 16.45 2
 06:24     20:57    Daglengte: 14:33 Vrijdag 19 Aug
00:00 52 J/kg 7.3 K 0 % 0 % 0 % 0 m²/s² 0 0 15.55 1
01:00 64 J/kg 6.8 K 0 % 0 % 0 % 0 m²/s² 0 0 13.28 2
02:00 76 J/kg 6.6 K 0 % 0 % 0 % 0 m²/s² 0 0 12.09 1
03:00 70 J/kg 6.4 K 0 % 0 % 0 % 0 m²/s² 0 0 11.17 1
04:00 29 J/kg 7.0 K 0 % 0 % 0 % 0 m²/s² 0 0 10.6 1
05:00 23 J/kg 7.2 K 0 % 0 % 0 % 0 m²/s² 0 0 10.35 1
06:00 34 J/kg 6.5 K 0 % 0 % 0 % 0 m²/s² 0 0 10.34 1
07:00 49 J/kg 5.9 K 0 % 0 % 0 % 0 m²/s² 0 0 12.47 2
08:00 126 J/kg 5.8 K 0 % 0 % 0 % 0 m²/s² 0 0 13.54 3
09:00 100 J/kg 6.2 K 0 % 0 % 0 % 0 m²/s² 0 0 13.64 3
10:00 97 J/kg 5.5 K 0 % 0 % 0 % 0 m²/s² 0 0 12.46 3
11:00 74 J/kg 5.6 K 0 % 0 % 0 % 0 m²/s² 0 0 12.8 3
12:00 62 J/kg 5.7 K 0 % 0 % 0 % 0 m²/s² 0 0 14.1 3
13:00 83 J/kg 5.1 K 0 % 0 % 0 % 0 m²/s² 0 0 13.86 80
14:00 75 J/kg 5.1 K 0 % 0 % 0 % 0 m²/s² 0 0 13.17 80
15:00 63 J/kg 5.5 K 0 % 0 % 0 % 0 m²/s² 0 0 12.28 2
16:00 40 J/kg 5.7 K 0 % 0 % 0 % 0 m²/s² 0 0 11.25 2
17:00 79 J/kg 4.2 K 0 % 0 % 0 % 0 m²/s² 0 0 8.58 2
18:00 109 J/kg 3.3 K 0 % 0 % 0 % 0 m²/s² 0 0 7.08 2
19:00 119 J/kg 2.6 K 0 % 0 % 0 % 0 m²/s² 0 0 5.48 1
20:00 143 J/kg 2.5 K 0 % 0 % 0 % 0 m²/s² 0 0 4.15 2
21:00 111 J/kg 2.7 K 0 % 0 % 0 % 0 m²/s² 0 0 2.94 1
22:00 95 J/kg 2.4 K 0 % 0 % 0 % 0 m²/s² 0 0 2.58 2
23:00 125 J/kg 1.3 K 0 % 0 % 0 % 0 m²/s² 0 0 1.42 3
 06:26     20:55    Daglengte: 14:29 Zaterdag 20 Aug
00:00 49 J/kg 0.2 K 0 % 0 % 0 % 0 m²/s² 0 0 0.23 3
01:00 30 J/kg -0.1 K 0 % 0 % 0 % 0 m²/s² 0 0 -0.07 3
02:00 106 J/kg -1.6 K 0 % 0 % 0 % 0 m²/s² 0 0 -1 61
03:00 234 J/kg -0.8 K 0 % 0 % 0 % 0 m²/s² 0 0 -0.5 61
04:00 179 J/kg 0.4 K 0 % 0 % 0 % 0 m²/s² 0 0 1.69 80
05:00 11 J/kg 2.2 K 0 % 0 % 0 % 0 m²/s² 0 0 4.12 80
06:00 6 J/kg 2.8 K 0 % 0 % 0 % 0 m²/s² 0 0 6.04 80
07:00 31 J/kg 2.5 K 0 % 0 % 0 % 0 m²/s² 0 0 11.14 2
08:00 65 J/kg 2.7 K 0 % 0 % 0 % 0 m²/s² 0 0 10.11 2
09:00 55 J/kg 3.5 K 0 % 0 % 0 % 0 m²/s² 0 0 10.4 2
10:00 81 J/kg 3.2 K 0 % 0 % 0 % 0 m²/s² 0 0 9.5 2
11:00 110 J/kg 2.9 K 0 % 0 % 0 % 0 m²/s² 0 0 8.51 2
12:00 115 J/kg 2.8 K 0 % 0 % 0 % 0 m²/s² 0 0 7.84 2
Temp Baro Wind Neerslag
  EWN Forecast EWN WRFDA DWD ICON FMI HIRLAM MET Norway GFS
 06:20     21:02    Daglengte: 14:42 Vandaag
13:00 16.2° 1017.7 hPa 2.5 m/s 0.0 mm 16.1° 1017.1 hPa 0.6 m/s 0.0 mm 15.9° 1017.7 hPa 2.2 m/s -2.0 mm 16.1° 1017.7 hPa 2.8 m/s 0.0 mm 16.0° 1018.1 hPa 0.9 m/s
16:00 16.2° 1016.6 hPa 4.5 m/s 0.0 mm 17.7° 1016.1 hPa 2.9 m/s 0.0 mm 16.0° 1016.6 hPa 5.4 m/s 0.0 mm 15.1° 1016.6 hPa 4.5 m/s 0.0 mm 16.7° 1017.4 hPa 3.2 m/s
19:00 14.5° 1015.1 hPa 5.1 m/s 0.0 mm 15.1° 1015.4 hPa 5.3 m/s 0.1 mm 14.5° 1014.9 hPa 5.1 m/s 0.2 mm 13.0° 1015.2 hPa 5.0 m/s 0.0 mm 14.7° 1015.8 hPa 2.4 m/s
22:00 13.3° 1014.1 hPa 6.3 m/s 0.0 mm 12.7° 1014.5 hPa 6.6 m/s 1.7 mm 13.8° 1014.2 hPa 5.9 m/s 0.1 mm 13.3° 1014.0 hPa 6.1 m/s 0.0 mm 12.2° 1015.1 hPa 4.4 m/s
 06:22     21:00    Daglengte: 14:38 Morgen
01:00 13.6° 1011.9 hPa 6.8 m/s 0.0 mm 13.7° 1011.9 hPa 6.8 m/s 2.6 mm 14.0° 1011.9 hPa 6.6 m/s 0.0 mm 13.7° 1012.1 hPa 6.6 m/s 0.0 mm 13.2° 1012.7 hPa 4.9 m/s
04:00 14.8° 1010.1 hPa 4.4 m/s 0.0 mm 15.3° 1009.9 hPa 4.0 m/s 3.3 mm 14.8° 1010.2 hPa 4.6 m/s 0.0 mm 15.2° 1010.7 hPa 2.9 m/s 0.0 mm 14.0° 1010.8 hPa 4.1 m/s
07:00 15.3° 1009.1 hPa 3.7 m/s 0.0 mm 14.5° 1009.3 hPa 4.4 m/s 3.9 mm 15.1° 1009.3 hPa 3.5 m/s 0.0 mm 15.6° 1009.4 hPa 4.0 m/s 0.0 mm 14.4° 1009.5 hPa 3.1 m/s
10:00 15.9° 1008.0 hPa 4.5 m/s 0.0 mm 15.9° 1008.0 hPa 3.4 m/s 4.7 mm 16.6° 1008.1 hPa 6.5 m/s 0.0 mm 15.8° 1008.4 hPa 4.3 m/s 0.0 mm 15.5° 1007.9 hPa 2.6 m/s
13:00 18.5° 1007.6 hPa 6.9 m/s 0.0 mm 18.6° 1007.4 hPa 6.6 m/s 9.9 mm 18.0° 1007.6 hPa 6.9 m/s 0.0 mm 19.6° 1007.6 hPa 7.2 m/s 0.0 mm 15.9° 1008.4 hPa 4.7 m/s
16:00 18.2° 1007.9 hPa 7.7 m/s 0.0 mm 17.5° 1008.2 hPa 7.5 m/s 10.0 mm 17.6° 1008.3 hPa 8.4 m/s 0.0 mm 18.7° 1007.5 hPa 7.2 m/s 0.0 mm 16.7° 1009.3 hPa 7.2 m/s
19:00 15.9° 1008.5 hPa 7.6 m/s 0.0 mm 15.8° 1008.5 hPa 7.9 m/s 10.0 mm 15.7° 1008.8 hPa 8.5 m/s 0.0 mm 16.0° 1008.5 hPa 6.6 m/s 0.0 mm 15.0° 1010.2 hPa 6.4 m/s
22:00 14.6° 1009.2 hPa 6.1 m/s 0.0 mm 12.5° 1009.6 hPa 4.5 m/s 10.0 mm 13.8° 1009.2 hPa 5.3 m/s 0.0 mm 15.4° 1009.3 hPa 6.3 m/s 0.0 mm 13.7° 1011.1 hPa 5.3 m/s
 06:24     20:57    Daglengte: 14:33 Vrijdag 19 Aug
01:00 14.1° 1009.2 hPa 5.6 m/s 0.0 mm 11.9° 1009.2 hPa 4.1 m/s 10.0 mm 13.3° 1009.2 hPa 5.1 m/s 0.0 mm 15.3° 1009.5 hPa 5.7 m/s 0.0 mm 13.5° 1011.0 hPa 5.4 m/s
04:00 13.8° 1009.4 hPa 4.7 m/s 0.0 mm 10.8° 1009.2 hPa 3.9 m/s 10.9 mm 12.5° 1009.4 hPa 4.0 m/s 0.0 mm 14.8° 1010.1 hPa 4.6 m/s 0.0 mm 12.5° 1010.7 hPa 6.0 m/s
07:00 13.5° 1010.1 hPa 5.4 m/s 0.0 mm 12.3° 1009.3 hPa 5.7 m/s 11.1 mm 12.2° 1010.2 hPa 4.6 m/s 0.0 mm 14.9° 1010.6 hPa 5.4 m/s 0.0 mm 12.8° 1011.2 hPa 6.1 m/s
10:00 15.3° 1010.7 hPa 6.6 m/s 0.0 mm 15.4° 1010.5 hPa 6.5 m/s 14.5 mm 14.8° 1010.8 hPa 7.3 m/s 0.0 mm 14.9° 1011.8 hPa 6.9 m/s
13:00 16.6° 1011.4 hPa 7.5 m/s 1.8 mm 16.6° 1010.9 hPa 7.6 m/s 14.6 mm 15.9° 1011.4 hPa 7.9 m/s 0.3 mm 17.1° 1012.1 hPa 8.2 m/s
16:00 17.2° 1011.8 hPa 7.7 m/s 1.1 mm 17.2° 1011.2 hPa 9.5 m/s 14.6 mm 16.4° 1012.0 hPa 7.5 m/s 0.2 mm 16.8° 1012.5 hPa 8.4 m/s
19:00 16.0° 1011.7 hPa 7.3 m/s 0.0 mm 16.0° 1010.7 hPa 7.9 m/s 14.6 mm 15.3° 1012.3 hPa 7.2 m/s 0.0 mm 15.9° 1011.9 hPa 6.2 m/s
22:00 14.4° 1010.5 hPa 6.2 m/s 1.8 mm 14.8° 1010.2 hPa 6.2 m/s 15.1 mm 12.9° 1012.1 hPa 5.0 m/s 0.0 mm 14.3° 1011.3 hPa 6.2 m/s
 06:26     20:55    Daglengte: 14:29 Zaterdag 20 Aug
01:00 13.8° 1009.0 hPa 6.3 m/s 15.7 mm 13.5° 1008.8 hPa 2.9 m/s 42.0 mm 13.1° 1010.0 hPa 5.9 m/s 0.0 mm 14.4° 1009.0 hPa 7.2 m/s
04:00 14.5° 1008.0 hPa 6.5 m/s 22.7 mm 13.7° 1008.1 hPa 2.3 m/s 88.4 mm 14.5° 1007.1 hPa 6.4 m/s 2.0 mm 14.0° 1009.2 hPa 5.7 m/s
07:00 13.2° 1008.6 hPa 6.4 m/s 22.0 mm 12.5° 1009.3 hPa 3.7 m/s 96.4 mm 13.4° 1008.4 hPa 7.1 m/s 0.9 mm 12.7° 1010.3 hPa 3.2 m/s
10:00 14.1° 1010.7 hPa 6.6 m/s 0.0 mm 13.8° 1010.6 hPa 4.1 m/s 96.9 mm 14.2° 1010.8 hPa 7.3 m/s 0.0 mm 14.7° 1011.6 hPa 5.6 m/s
13:00 15.8° 1011.8 hPa 8.7 m/s 0.0 mm 16.4° 1011.7 hPa 5.7 m/s 97.4 mm 15.7° 1011.9 hPa 9.4 m/s 0.0 mm 15.9° 1012.4 hPa 6.0 m/s
16:00 16.3° 1012.8 hPa 7.1 m/s 20.4 mm 16.3° 1012.8 hPa 7.1 m/s 20.4 mm
19:00 15.0° 1013.2 hPa 5.5 m/s 20.4 mm 15.0° 1013.2 hPa 5.5 m/s 20.4 mm
22:00 11.1° 1013.4 hPa 2.9 m/s 20.4 mm 11.1° 1013.4 hPa 2.9 m/s 20.4 mm
 06:27     20:53    Daglengte: 14:26 Zondag 21 Aug
01:00 10.9° 1013.3 hPa 3.0 m/s 20.4 mm 10.9° 1013.3 hPa 3.0 m/s 20.4 mm
04:00 10.1° 1012.8 hPa 2.6 m/s 20.4 mm 10.1° 1012.8 hPa 2.6 m/s 20.4 mm
07:00 10.4° 1013.1 hPa 2.4 m/s 20.4 mm 10.4° 1013.1 hPa 2.4 m/s 20.4 mm
10:00 14.6° 1013.5 hPa 3.4 m/s 20.4 mm 14.6° 1013.5 hPa 3.4 m/s 20.4 mm
13:00 17.3° 1013.5 hPa 3.1 m/s 20.4 mm 17.3° 1013.5 hPa 3.1 m/s 20.4 mm
16:00 18.0° 1012.5 hPa 2.3 m/s 20.4 mm 18.0° 1012.5 hPa 2.3 m/s 20.4 mm
19:00 15.8° 1012.8 hPa 2.8 m/s 20.4 mm 15.8° 1012.8 hPa 2.8 m/s 20.4 mm
22:00 11.6° 1012.5 hPa 1.5 m/s 20.4 mm 11.6° 1012.5 hPa 1.5 m/s 20.4 mm
 06:29     20:51    Daglengte: 14:22 Maandag 22 Aug
01:00 12.0° 1011.5 hPa 1.3 m/s 20.4 mm 12.0° 1011.5 hPa 1.3 m/s 20.4 mm
04:00 12.5° 1009.7 hPa 1.8 m/s 20.4 mm 12.5° 1009.7 hPa 1.8 m/s 20.4 mm
07:00 13.3° 1008.4 hPa 2.9 m/s 20.4 mm 13.3° 1008.4 hPa 2.9 m/s 20.4 mm
10:00 14.9° 1006.8 hPa 5.5 m/s 20.6 mm 14.9° 1006.8 hPa 5.5 m/s 20.6 mm
13:00 15.9° 1005.4 hPa 6.6 m/s 22.2 mm 15.9° 1005.4 hPa 6.6 m/s 22.2 mm
16:00 17.7° 1004.6 hPa 4.8 m/s 22.9 mm 17.7° 1004.6 hPa 4.8 m/s 22.9 mm
19:00 17.9° 1004.3 hPa 4.3 m/s 24.1 mm 17.9° 1004.3 hPa 4.3 m/s 24.1 mm
22:00 14.1° 1005.0 hPa 3.0 m/s 24.2 mm 14.1° 1005.0 hPa 3.0 m/s 24.2 mm
 06:31     20:48    Daglengte: 14:17 Dinsdag 23 Aug
01:00 14.7° 1004.5 hPa 3.0 m/s 24.3 mm 14.7° 1004.5 hPa 3.0 m/s 24.3 mm
04:00 14.7° 1003.8 hPa 3.2 m/s 24.5 mm 14.7° 1003.8 hPa 3.2 m/s 24.5 mm
07:00 13.5° 1004.0 hPa 3.4 m/s 24.6 mm 13.5° 1004.0 hPa 3.4 m/s 24.6 mm
10:00 16.9° 1004.2 hPa 3.9 m/s 24.6 mm 16.9° 1004.2 hPa 3.9 m/s 24.6 mm
13:00 19.6° 1004.1 hPa 4.7 m/s 24.8 mm 19.6° 1004.1 hPa 4.7 m/s 24.8 mm
16:00 19.7° 1003.9 hPa 5.1 m/s 25.1 mm 19.7° 1003.9 hPa 5.1 m/s 25.1 mm
19:00 16.9° 1004.8 hPa 3.8 m/s 25.8 mm 16.9° 1004.8 hPa 3.8 m/s 25.8 mm
22:00 13.2° 1005.9 hPa 2.2 m/s 25.8 mm 13.2° 1005.9 hPa 2.2 m/s 25.8 mm
 06:33     20:46    Daglengte: 14:13 Woensdag 24 Aug
01:00 13.5° 1005.9 hPa 2.5 m/s 26.0 mm 13.5° 1005.9 hPa 2.5 m/s 26.0 mm
04:00 14.2° 1005.9 hPa 2.3 m/s 26.5 mm 14.2° 1005.9 hPa 2.3 m/s 26.5 mm
07:00 14.0° 1006.6 hPa 2.8 m/s 26.7 mm 14.0° 1006.6 hPa 2.8 m/s 26.7 mm
10:00 15.9° 1007.9 hPa 3.2 m/s 26.8 mm 15.9° 1007.9 hPa 3.2 m/s 26.8 mm
13:00 17.9° 1008.5 hPa 4.8 m/s 27.7 mm 17.9° 1008.5 hPa 4.8 m/s 27.7 mm
19:00 14.6° 1012.9 hPa 6.2 m/s 29.8 mm 14.6° 1012.9 hPa 6.2 m/s 29.8 mm
 06:35     20:44    Daglengte: 14:09 Donderdag 25 Aug
01:00 12.9° 1016.9 hPa 5.1 m/s 30.1 mm 12.9° 1016.9 hPa 5.1 m/s 30.1 mm
07:00 11.8° 1019.6 hPa 3.8 m/s 30.2 mm 11.8° 1019.6 hPa 3.8 m/s 30.2 mm
13:00 16.8° 1022.2 hPa 4.0 m/s 30.2 mm 16.8° 1022.2 hPa 4.0 m/s 30.2 mm
19:00 15.8° 1023.4 hPa 2.8 m/s 30.3 mm 15.8° 1023.4 hPa 2.8 m/s 30.3 mm
 06:36     20:41    Daglengte: 14:05 Vrijdag 26 Aug
01:00 12.9° 1024.9 hPa 0.3 m/s 30.3 mm 12.9° 1024.9 hPa 0.3 m/s 30.3 mm
07:00 13.9° 1024.5 hPa 0.5 m/s 30.3 mm 13.9° 1024.5 hPa 0.5 m/s 30.3 mm
13:00 17.3° 1024.9 hPa 0.4 m/s 30.3 mm 17.3° 1024.9 hPa 0.4 m/s 30.3 mm
19:00 16.8° 1025.0 hPa 3.3 m/s 31.1 mm 16.8° 1025.0 hPa 3.3 m/s 31.1 mm
 06:38     20:39    Daglengte: 14:01 Zaterdag 27 Aug
01:00 13.1° 1026.0 hPa 1.9 m/s 31.1 mm 13.1° 1026.0 hPa 1.9 m/s 31.1 mm
07:00 12.8° 1023.3 hPa 0.6 m/s 0.4 mm
13:00 17.6° 1023.3 hPa 0.9 m/s 0.2 mm
19:00 17.2° 1022.6 hPa 1.5 m/s 0.3 mm
 06:40     20:36    Daglengte: 13:56 Zondag 28 Aug
01:00 13.7° 1022.8 hPa 0.9 m/s 0.4 mm
07:00 13.1° 1021.8 hPa 1.1 m/s 0.6 mm
13:00 18.0° 1021.9 hPa 0.9 m/s 0.5 mm
19:00 17.5° 1021.3 hPa 1.6 m/s 0.5 mm
 06:42     20:34    Daglengte: 13:52 Maandag 29 Aug
01:00 13.9° 1021.8 hPa 0.9 m/s 0.2 mm
07:00 13.1° 1021.3 hPa 1.0 m/s 0.4 mm
13:00 17.7° 1021.6 hPa 0.7 m/s 0.3 mm
19:00 16.8° 1020.9 hPa 1.6 m/s 0.6 mm
 06:43     20:32    Daglengte: 13:49 Dinsdag 30 Aug
01:00 13.5° 1021.2 hPa 0.5 m/s 0.4 mm
07:00 13.0° 1020.4 hPa 0.2 m/s 0.4 mm
13:00 17.3° 1020.7 hPa 0.7 m/s 0.4 mm
19:00 16.5° 1020.3 hPa 1.6 m/s 0.4 mm
 06:45     20:29    Daglengte: 13:44 Woensdag 31 Aug
01:00 12.8° 1020.8 hPa 0.4 m/s 0.3 mm
07:00 12.4° 1019.9 hPa 0.7 m/s 0.3 mm
13:00 17.4° 1020.0 hPa 1.3 m/s 0.3 mm
19:00 16.4° 1018.8 hPa 1.1 m/s 0.7 mm
 06:47     20:27    Daglengte: 13:40 Donderdag 01 Sep
01:00 13.6° 1018.5 hPa 1.0 m/s 0.5 mm
07:00 12.9° 1017.4 hPa 1.1 m/s 0.6 mm
FMI Hirlam - 7.5 km EWN WRFDA - 12 km DWD ICON - 7 km GFS - 25 km Basiskaart






























































Updatetijd (Europe/Amsterdam) Resolutie Lengte Stap
FMI Hirlam 07:15, 13:15, 19:15, 01:15 7.5 km 49h 1h
EWN WRFDA 10:15, 16:15, 22:15, 04:15 12 km 73h 1h
DWD ICON 11:45, 17:45, 23:45, 05:45 7 km 75h 1h
GFS 08:15, 14:15, 20:15, 02:15 25 km 237h 3h
30+ mm
25-30 mm
20-25 mm
15-20 mm
10-15 mm
6-10 mm
4-6 mm
2-4 mm
1-2 mm
0.5-1 mm
0.2-0.5 mm
0.1-0.2 mm
30+ mm
25-30 mm
20-25 mm
15-20 mm
10-15 mm
6-10 mm
4-6 mm
2-4 mm
1-2 mm
0.5-1 mm
0.2-0.5 mm
0.1-0.2 mm
Sneeuwval
Natte sneeuw
Hagel
Vorst
30+ mm
25-30 mm
20-25 mm
15-20 mm
10-15 mm
6-10 mm
4-6 mm
2-4 mm
1-2 mm
0.5-1 mm
0.2-0.5 mm
0.1-0.2 mm
Sneeuwval
Natte sneeuw
Hagel
Vorst
Onweer
50 mm
40 mm
30 mm
26 mm
22 mm
18 mm
14 mm
10 mm
9 mm
8 mm
7 mm
6 mm
5 mm
4.5 mm
4 mm
3.5 mm
3 mm
2.5 mm
2 mm
1.5 mm
1 mm
0.8 mm
0.6 mm
0.4 mm
0.2 mm
0.05 mm
35°
30°
25°
20°
15°
10°
-5°
-10°
-15°
-20°
-25°
-30°
-35°
33> m/s
29 m/s
25 m/s
21 m/s
17 m/s
14 m/s
11 m/s
8 m/s
5 m/s
3 m/s
0 m/s
2600 J/kg
2400 J/kg
2200 J/kg
2000 J/kg
1800 J/kg
1600 J/kg
1400 J/kg
1200 J/kg
1000 J/kg
800 J/kg
600 J/kg
400 J/kg
200 J/kg
70 dBZ
65 dBZ
60 dBZ
55 dBZ
50 dBZ
45 dBZ
40 dBZ
35 dBZ
30 dBZ
25 dBZ
20 dBZ
15 dBZ
10 dBZ
5 dBZ
-1 K
-2 K
-3 K
-4 K
-5 K
-6 K
-7 K
-8 K
-9 K
950 m²/s²
900 m²/s²
850 m²/s²
800 m²/s²
750 m²/s²
700 m²/s²
650 m²/s²
600 m²/s²
550 m²/s²
500 m²/s²
450 m²/s²
400 m²/s²
350 m²/s²
300 m²/s²
250 m²/s²
200 m²/s²
150 m²/s²
100 m²/s²
46 m/s
44 m/s
42 m/s
40 m/s
38 m/s
36 m/s
34 m/s
32 m/s
30 m/s
28 m/s
26 m/s
24 m/s
22 m/s
20 m/s
16 m/s
12 m/s
8 m/s
4 m/s
30 m/s
28 m/s
26 m/s
24 m/s
22 m/s
20 m/s
18 m/s
16 m/s
14 m/s
12 m/s
10 m/s
8 m/s
6 m/s
4 m/s
2 m/s
3.0
2.8
2.6
2.4
2.2
2.0
1.8
1.6
1.4
1.2
1.0
0.8
0.6
0.4
0.2
15
14
13
12
11
10
9
8
7
6
5
4
3
2
1
90%
80%
70%
60%
50%
40%
30%
20%
10%
42
40
38
36
34
32
30
28
26
24
22
20
18
16